Theta_e
307 307 307 308 308 308 309 309 309 308 308 309 309 302 302 301 301 299 302 304 305 304 302 302 301 302 303 302 302 303 301 302 301 301 302 298 299 298 299 300 299 300 300 301 304
306 307 307 308 308 308 308 309 309 309 308 306 301 302 302 303 306 301 302 304 304 303 302 302 301 301 300 302 300 302 300 302 299 299 299 298 298 298 300 298 300 300 302 303 303
302 303 306 307 308 308 308 308 307 304 304 303 303 303 304 307 305 301 301 302 302 302 303 303 303 301 301 301 301 301 301 300 300 301 300 300 300 300 301 301 301 300 301 301 302
301 302 302 302 304 307 308 305 302 301 301 302 300 301 302 306 303 300 300 301 301 302 303 304 302 302 302 303 303 304 302 302 301 303 302 301 301 301 301 300 300 299 301 302 301
301 301 301 301 300 298 297 300 300 300 300 299 300 300 302 299 300 299 299 300 301 303 302 302 302 302 303 304 304 304 304 304 304 303 303 302 301 301 301 299 299 302 302 301 301
302 302 301 302 300 297 296 299 298 299 298 298 299 301 302 298 301 299 300 300 301 302 302 302 303 302 304 303 304 302 303 303 303 303 303 303 301 301 300 300 300 301 301 301 299
304 303 302 302 301 298 297 297 297 296 298 298 299 302 300 299 299 299 299 301 302 302 302 302 303 303 303 305 303 303 303 303 304 304 303 301 301 300 299 300 301 301 301 299 298
309 307 304 304 303 301 299 298 297 296 298 296 300 302 299 296 298 298 299 301 301 302 302 301 303 303 303 303 303 304 302 302 304 303 303 301 301 301 300 300 300 299 299 298 298
313 312 312 309 306 303 300 298 298 298 296 297 299 299 296 297 298 298 300 300 301 302 302 302 303 302 303 303 302 300 296 303 302 303 303 302 302 301 300 300 299 298 297 298 297
314 314 314 314 309 305 302 300 298 300 298 298 298 300 297 298 298 299 300 301 301 301 304 303 302 299 296 296 294 296 297 302 302 303 303 301 300 301 299 299 298 297 298 296 296
316 315 315 315 312 305 305 302 300 303 298 296 296 298 297 297 298 300 301 301 302 303 301 302 301 296 300 301 302 302 302 301 302 303 301 301 300 300 300 298 297 297 296 296 295
316 316 315 315 312 306 302 298 297 298 298 296 296 296 297 297 299 300 301 302 296 298 301 301 301 301 301 302 302 301 296 297 300 301 300 300 300 300 300 297 297 297 297 294 294
317 316 315 315 309 303 298 296 296 298 299 297 295 296 296 298 299 300 300 301 296 295 296 298 303 301 302 302 300 300 297 297 299 299 298 299 297 301 300 298 298 298 295 293 293
316 316 315 314 307 302 300 296 296 297 298 302 296 297 298 298 301 299 300 300 302 295 299 300 301 301 302 301 298 296 301 300 300 293 294 298 295 299 300 300 299 295 293 292 290
317 316 314 313 306 302 299 297 297 300 308 299 296 295 297 299 299 300 299 300 302 299 292 297 301 302 300 302 299 298 300 300 300 289 295 294 293 298 300 300 296 294 294 292 290
313 314 313 309 308 301 299 297 299 307 308 295 295 296 295 299 300 299 300 299 299 300 300 296 299 298 299 299 299 300 297 296 295 289 291 291 292 297 297 299 296 294 293 292 290
311 312 310 308 305 301 298 300 308 307 298 298 296 296 296 297 299 299 300 302 299 293 294 297 299 298 297 300 300 295 289 287 290 291 296 286 295 297 297 295 295 293 292 291 290
312 311 309 306 303 300 302 306 313 303 309 297 295 296 298 297 300 297 299 299 299 298 290 290 291 293 299 299 295 297 291 289 288 293 293 286 294 296 296 294 294 292 291 291 289
312 308 305 301 299 302 304 312 304 311 301 298 299 296 295 297 294 295 300 298 299 295 293 291 295 296 298 299 295 295 293 295 287 283 292 290 292 296 295 288 291 291 291 290 289
310 304 299 298 299 301 304 308 308 299 297 297 304 300 293 295 297 293 299 299 300 297 293 295 289 291 295 298 295 293 295 290 286 290 290 290 287 296 290 287 287 290 288 287 286
307 303 297 298 300 300 310 309 307 298 297 298 300 295 296 292 296 296 298 299 298 297 297 291 286 290 295 289 291 290 290 289 288 293 290 290 293 288 288 285 285 287 287 285 284
305 305 296 297 302 300 307 305 297 296 295 296 296 296 294 295 298 295 300 298 297 293 296 296 294 292 292 297 297 293 291 294 290 286 292 295 297 284 284 284 283 286 285 285 280
300 298 295 297 308 305 301 299 296 298 298 296 295 296 296 293 296 298 298 297 297 296 296 296 288 286 291 293 293 292 295 295 289 295 295 290 292 284 279 281 283 284 285 281 282
299 303 296 295 297 303 305 304 301 296 297 296 298 296 296 294 296 295 298 296 296 297 297 296 297 290 292 288 285 291 295 297 293 285 289 292 293 295 293 285 283 282 281 277 277
302 303 299 301 301 302 303 305 303 303 296 295 296 296 296 298 296 294 296 297 296 297 296 293 292 294 294 292 289 294 293 291 293 294 291 294 287 292 293 289 290 282 274 281 278
302 301 297 301 300 301 304 304 305 303 297 298 295 297 296 294 298 297 296 297 296 295 295 295 288 286 286 292 293 292 292 291 291 292 291 294 294 294 292 277 280 281 274 280 274
302 301 303 304 298 302 303 303 302 301 299 298 296 297 296 298 296 295 294 294 295 295 296 292 287 284 286 290 287 290 287 287 286 283 285 286 289 278 282 280 278 279 276 278 274
Wind_Speed
14 14 14 14 15 14 14 14 13 13 12 12 11 8 6 9 14 27 13 14 15 17 20 16 10 11 7 4 5 3 4 1 4 5 4 6 6 6 4 2 3 2 3 5 16
14 14 14 14 14 14 14 13 12 12 12 11 10 8 6 3 3 19 16 17 17 18 20 13 7 12 4 3 4 4 4 1 3 1 2 6 7 7 5 8 3 5 9 16 14
14 14 15 15 15 16 15 14 12 10 11 10 8 7 4 3 3 7 21 18 17 18 18 8 9 3 5 5 5 4 3 2 2 3 3 5 7 6 5 6 3 6 6 9 12
14 15 16 17 17 16 16 14 11 10 10 9 7 6 6 4 3 10 20 17 13 15 15 9 5 2 4 3 2 3 4 3 3 3 4 5 5 8 6 8 9 7 2 4 6
15 15 16 17 18 19 17 12 10 9 9 8 6 7 3 5 3 12 17 17 10 15 19 6 7 4 3 2 2 3 3 5 4 6 4 6 6 7 13 12 11 4 5 5 3
15 16 17 18 19 20 17 10 9 8 7 7 7 8 3 5 3 11 15 14 15 17 16 10 3 3 2 2 2 2 4 7 6 4 3 4 5 2 7 6 9 6 6 5 6
15 17 18 19 20 22 18 7 7 9 6 6 5 5 7 3 4 11 14 10 12 12 5 8 7 3 2 2 1 2 4 7 4 4 3 2 8 6 9 8 7 7 7 6 5
14 17 19 21 22 21 20 8 6 9 5 5 5 3 3 3 3 12 14 3 7 7 6 5 7 3 2 1 0 4 4 5 3 4 2 6 8 10 9 6 8 8 5 4 5
13 16 19 21 23 20 20 7 5 7 4 5 4 3 2 3 5 9 10 5 9 6 7 6 4 1 3 3 4 7 1 3 9 6 4 3 13 12 7 8 6 4 4 4 6
13 15 18 20 22 21 17 4 4 5 5 3 3 5 4 4 6 6 7 7 3 8 5 3 3 3 5 5 2 3 2 3 5 5 9 11 17 23 7 6 5 5 3 5 5
12 14 16 19 21 19 18 3 7 3 9 2 0 1 2 10 3 3 8 6 6 3 3 4 5 2 3 2 2 3 3 6 7 8 6 13 19 22 13 5 6 4 1 4 6
12 14 15 18 19 15 12 7 2 1 3 1 1 1 1 4 3 5 9 4 6 1 5 5 1 2 2 2 2 3 2 6 6 3 7 11 16 17 8 6 6 5 3 6 7
13 14 14 16 12 10 14 6 0 3 2 0 1 1 1 4 2 3 4 3 5 3 2 4 2 2 1 2 2 3 3 3 7 5 5 6 8 5 3 5 5 2 3 5 8
12 13 12 14 4 6 3 6 2 2 4 2 1 2 1 1 3 2 2 2 2 3 1 3 3 2 1 2 4 2 1 4 8 5 2 5 5 6 3 5 3 4 7 8 7
11 10 8 7 6 3 4 4 2 1 4 1 0 1 1 2 2 2 0 1 2 3 5 5 1 1 1 3 4 7 7 10 6 3 4 6 3 7 1 4 1 6 9 9 7
8 6 3 3 5 3 5 4 0 5 5 3 2 2 4 2 2 1 1 1 1 2 2 5 1 2 2 4 2 5 5 6 4 4 2 4 4 7 4 3 2 6 8 10 9
5 5 4 2 1 3 5 2 4 3 2 5 2 1 2 3 2 3 2 2 1 4 4 4 2 0 1 3 5 8 6 4 6 4 5 3 1 10 3 4 3 7 9 8 11
7 5 2 2 2 1 3 4 3 3 3 2 2 1 1 2 1 4 3 2 1 2 2 3 7 2 2 2 4 3 5 5 4 3 6 2 6 6 5 5 3 6 7 8 12
9 6 2 0 2 1 4 1 7 3 2 1 2 4 4 1 2 4 3 3 2 3 5 3 5 0 2 2 5 3 2 3 2 1 2 4 8 7 3 4 5 8 9 10 11
6 5 2 1 3 2 3 5 3 1 0 1 4 4 3 3 1 3 3 2 3 2 3 3 4 2 3 3 4 5 2 3 3 3 6 6 6 8 6 7 6 8 9 10 9
6 2 2 3 5 3 3 4 2 1 1 2 3 2 5 3 4 3 3 1 3 3 4 4 3 5 3 4 8 1 2 2 3 4 4 4 7 7 8 7 6 8 10 9 9
4 1 1 4 2 0 2 3 1 2 0 2 1 3 5 4 2 4 4 5 5 6 4 4 4 4 10 4 4 5 7 5 4 6 4 3 10 4 7 7 7 9 10 8 7
2 2 2 1 3 2 1 2 2 4 3 3 3 3 1 5 1 6 3 2 5 6 6 5 1 3 7 5 4 2 5 4 3 1 7 3 8 4 4 5 7 9 11 7 7
2 2 1 1 1 3 3 3 3 1 1 2 2 2 2 2 2 3 2 2 5 4 4 3 3 7 7 7 3 3 5 8 6 3 4 10 18 27 14 8 7 9 7 6 5
2 3 4 4 4 5 5 4 4 2 2 5 1 6 6 4 2 5 5 2 4 6 3 4 5 3 7 9 6 15 15 9 11 15 7 20 7 19 18 10 11 7 5 7 7
3 3 1 3 2 7 8 6 8 4 7 5 5 6 8 6 8 7 6 5 5 3 5 3 4 2 5 8 9 8 17 16 19 15 15 21 25 26 23 2 4 6 6 6 5
5 2 3 5 4 5 7 7 8 7 8 5 9 5 10 16 7 4 4 2 4 7 8 5 3 2 6 3 7 8 9 6 6 5 7 7 15 2 5 5 6 5 7 6 5
Wind_Direction
13 11 12 7 6 4 2 1 357 354 351 346 342 336 324 7 39 41 41 345 338 346 359 354 25 3 46 52 42 22 65 20 346 14 285 359 19 349 296 274 346 274 302 340 9
14 16 11 8 4 1 359 355 351 351 348 347 350 351 353 358 28 50 1 351 348 357 352 350 341 351 39 40 15 67 92 140 22 45 344 324 20 323 338 320 291 303 333 354 15
16 15 11 6 3 359 355 351 347 353 355 358 5 12 33 15 56 9 352 354 1 1 352 311 291 339 56 50 12 346 108 351 38 49 24 329 334 337 348 315 214 310 306 356 9
19 16 13 12 7 1 357 356 1 4 4 9 29 36 21 360 77 351 351 356 4 14 24 3 7 30 75 75 45 93 83 52 300 343 335 313 290 313 235 245 271 287 303 349 339
20 17 14 14 12 8 5 4 7 8 13 18 23 360 20 49 56 347 355 357 20 27 31 14 37 354 91 60 70 50 326 315 299 311 267 284 267 261 281 268 280 262 313 303 318
17 15 12 9 12 9 2 357 5 5 10 26 28 7 4 67 14 355 360 7 22 24 34 27 25 332 62 57 75 274 278 269 274 229 232 268 270 68 274 266 296 272 260 294 85
14 13 9 6 7 7 1 356 360 0 354 359 348 23 53 124 10 358 7 15 21 23 13 14 0 31 333 99 249 265 329 329 222 211 231 76 316 209 264 275 255 263 272 81 46
9 9 7 6 4 360 1 1 5 357 3 16 26 32 91 27 34 4 3 53 11 12 19 360 355 307 64 134 283 342 38 8 299 175 223 88 271 269 287 268 275 279 89 49 9
2 2 4 4 2 359 354 353 1 18 20 41 43 34 25 1 19 348 1 358 343 358 353 333 308 7 21 45 26 10 260 308 323 324 358 190 292 269 265 296 292 100 84 34 355
348 352 358 357 0 1 356 16 24 34 10 47 50 51 23 337 322 332 356 13 350 341 356 343 17 58 26 57 218 264 345 284 272 287 321 290 275 286 284 264 181 143 77 25 330
334 338 350 354 353 4 6 17 17 6 36 93 234 210 48 324 317 12 357 339 5 31 30 352 61 149 155 111 158 251 251 259 260 269 329 277 284 284 293 167 166 140 39 335 315
319 325 337 347 348 5 28 73 162 255 333 298 142 218 89 341 305 6 13 62 54 67 349 19 153 127 78 267 283 242 256 283 290 343 324 296 286 285 249 204 174 147 349 321 317
313 310 323 338 346 360 52 70 79 166 104 149 78 25 296 2 341 349 32 88 96 37 36 157 176 135 120 322 3 285 192 279 270 333 270 292 294 324 29 107 138 151 29 326 326
314 307 312 332 336 356 41 10 8 178 62 290 40 357 333 302 35 54 43 120 96 198 226 221 214 144 63 259 116 299 244 309 312 34 274 63 277 297 199 182 157 32 346 324 300
303 289 295 345 323 13 340 338 351 41 6 269 344 261 251 68 296 205 44 102 269 226 92 260 135 161 130 220 135 242 325 292 289 150 16 326 61 269 186 225 201 351 330 318 323
285 278 278 331 325 334 340 329 188 41 265 327 343 350 22 327 193 272 272 197 327 199 249 240 159 188 245 289 212 302 329 22 69 101 4 245 114 280 233 202 342 312 313 305 306
278 255 281 280 280 329 332 7 31 144 1 299 326 47 101 306 342 11 317 286 212 43 334 328 299 92 259 7 11 37 43 354 355 6 227 243 347 244 213 131 190 281 291 299 314
251 234 220 244 217 316 342 49 179 239 248 256 243 300 260 1 17 329 312 283 174 134 92 109 331 135 288 137 186 45 123 141 254 285 271 18 227 252 181 156 221 276 279 305 318
225 163 155 360 146 81 70 151 207 209 198 220 138 61 315 235 163 37 236 215 155 142 158 102 281 136 44 59 112 267 71 163 111 136 4 264 288 296 181 314 323 297 342 314 315
180 144 67 118 126 75 84 247 228 149 126 232 166 137 211 260 24 80 236 249 146 121 122 197 340 234 269 82 6 143 168 32 11 344 303 287 280 243 266 264 305 336 300 288 286
145 87 19 142 120 55 204 232 259 232 21 187 224 245 217 209 174 237 242 247 124 133 95 128 104 290 62 200 180 23 345 12 129 154 202 294 265 226 222 207 239 277 270 273 280
156 114 126 154 81 232 199 225 190 201 149 183 227 188 183 174 228 243 234 204 139 142 177 199 154 259 229 267 157 165 190 161 132 270 228 200 268 237 194 204 206 258 268 281 266
110 96 109 131 187 216 212 242 245 200 217 173 231 231 123 187 236 217 225 159 147 167 176 182 276 350 339 351 359 203 221 173 134 112 220 154 266 299 297 273 254 255 278 295 316
132 142 319 104 249 183 171 224 255 319 241 186 216 123 123 248 240 289 261 198 189 191 169 145 216 188 209 213 146 264 226 204 153 152 223 227 273 283 276 269 275 268 262 281 321
181 230 181 180 219 185 173 173 177 252 224 175 305 212 173 220 197 226 226 199 198 203 187 143 223 243 253 253 220 255 254 207 204 218 196 268 222 267 281 292 291 268 311 317 338
171 156 1 177 142 173 193 206 218 183 162 227 206 198 189 197 194 203 183 197 206 167 173 185 258 98 284 255 245 256 253 226 224 241 252 257 276 274 280 300 281 266 282 294 297
191 172 142 180 182 162 186 203 214 159 220 192 197 161 200 231 226 236 219 199 196 167 189 170 151 64 264 348 313 289 238 173 186 210 160 172 232 293 283 262 252 266 234 265 274